Location: Stigler
(35.2540°N, 95.1230°W)
Time: 07:20:32
(UTC-06:00)

Cosmos 1980 Rocket - Pass Details

Date: 26 September 2017
Orbit: 827 x 852 km, 71.0° (Epoch: 14 December)

Event Time Altitude Azimuth Distance (km) Brightness Sun altitude
Rises 22:03:24 0° 344° (NNW) 3,395 5.9 -35.0°
Reaches altitude 10° 22:05:56 10° 350° (N) 2,461 5.0 -35.4°
Enters shadow 22:07:36 19° 358° (N) 1,887 4.2 -35.7°
